Year,Month,Day,Hour,Minute,Value (Times are PST for temperature in C)
2009,07,29,00,00,22.30
2009,07,29,00,01,22.20
2009,07,29,00,02,22.20
2009,07,29,00,03,22.20
2009,07,29,00,04,22.20
2009,07,29,00,05,22.20
2009,07,29,00,06,22.20
2009,07,29,00,07,22.20
2009,07,29,00,08,22.10
2009,07,29,00,09,22.10
2009,07,29,00,10,22.10
2009,07,29,00,11,22.10
2009,07,29,00,12,22.10
2009,07,29,00,13,22.10
2009,07,29,00,14,22.00
2009,07,29,00,15,22.00
2009,07,29,00,16,22.00
2009,07,29,00,17,22.00
2009,07,29,00,18,22.00
2009,07,29,00,19,22.00
2009,07,29,00,20,21.90
2009,07,29,00,21,21.90
2009,07,29,00,22,21.90
2009,07,29,00,23,21.90
2009,07,29,00,24,21.90
2009,07,29,00,25,21.90
2009,07,29,00,26,21.90
2009,07,29,00,27,21.80
2009,07,29,00,28,21.80
2009,07,29,00,29,21.80
2009,07,29,00,30,21.80
2009,07,29,00,31,21.80
2009,07,29,00,32,21.80
2009,07,29,00,33,21.70
2009,07,29,00,34,21.70
2009,07,29,00,35,21.70
2009,07,29,00,36,21.70
2009,07,29,00,37,21.70
2009,07,29,00,38,21.70
2009,07,29,00,39,21.60
2009,07,29,00,40,21.60
2009,07,29,00,41,21.60
2009,07,29,00,42,21.60
2009,07,29,00,43,21.60
2009,07,29,00,44,21.60
2009,07,29,00,45,21.60
2009,07,29,00,46,21.60
2009,07,29,00,47,21.60
2009,07,29,00,48,21.60
2009,07,29,00,49,21.60
2009,07,29,00,50,21.60
2009,07,29,00,51,21.60
2009,07,29,00,52,21.60
2009,07,29,00,53,21.60
2009,07,29,00,54,21.60
2009,07,29,00,55,21.60
2009,07,29,00,56,21.50
2009,07,29,00,57,21.40
2009,07,29,00,58,21.40
2009,07,29,00,59,21.40
2009,07,29,01,00,21.40
2009,07,29,01,01,21.40
2009,07,29,01,02,21.30
2009,07,29,01,03,21.30
2009,07,29,01,04,21.30
2009,07,29,01,05,21.30
2009,07,29,01,06,21.30
2009,07,29,01,07,21.30
2009,07,29,01,08,21.30
2009,07,29,01,09,21.30
2009,07,29,01,10,21.30
2009,07,29,01,11,21.30
2009,07,29,01,12,21.30
2009,07,29,01,13,21.30
2009,07,29,01,14,21.30
2009,07,29,01,15,21.30
2009,07,29,01,16,21.30
2009,07,29,01,17,21.30
2009,07,29,01,18,21.30
2009,07,29,01,19,21.20
2009,07,29,01,20,21.20
2009,07,29,01,21,21.20
2009,07,29,01,22,21.20
2009,07,29,01,23,21.20
2009,07,29,01,24,21.20
2009,07,29,01,25,21.20
2009,07,29,01,26,21.10
2009,07,29,01,27,21.10
2009,07,29,01,28,21.10
2009,07,29,01,29,21.10
2009,07,29,01,30,21.10
2009,07,29,01,31,21.10
2009,07,29,01,32,21.10
2009,07,29,01,33,21.10
2009,07,29,01,34,21.10
2009,07,29,01,35,21.10
2009,07,29,01,36,21.10
2009,07,29,01,37,21.10
2009,07,29,01,38,21.10
2009,07,29,01,39,21.00
2009,07,29,01,40,21.00
2009,07,29,01,41,21.00
2009,07,29,01,42,21.00
2009,07,29,01,43,21.00
2009,07,29,01,44,21.00
2009,07,29,01,45,21.00
2009,07,29,01,46,21.00
2009,07,29,01,47,21.00
2009,07,29,01,48,21.00
2009,07,29,01,49,21.00
2009,07,29,01,50,21.00
2009,07,29,01,51,21.00
2009,07,29,01,52,21.00
2009,07,29,01,53,21.00
2009,07,29,01,54,21.00
2009,07,29,01,55,21.00
2009,07,29,01,56,21.00
2009,07,29,01,57,21.00
2009,07,29,01,58,20.90
2009,07,29,01,59,20.90
2009,07,29,02,00,20.90
2009,07,29,02,01,20.90
2009,07,29,02,02,20.90
2009,07,29,02,03,20.90
2009,07,29,02,04,20.90
2009,07,29,02,05,20.90
2009,07,29,02,06,20.90
2009,07,29,02,07,20.90
2009,07,29,02,08,20.90
2009,07,29,02,09,20.90
2009,07,29,02,10,20.90
2009,07,29,02,11,20.90
2009,07,29,02,12,20.90
2009,07,29,02,13,20.90
2009,07,29,02,14,20.90
2009,07,29,02,15,20.90
2009,07,29,02,16,20.90
2009,07,29,02,17,20.90
2009,07,29,02,18,20.90
2009,07,29,02,19,20.90
2009,07,29,02,20,21.00
2009,07,29,02,21,21.00
2009,07,29,02,22,21.00
2009,07,29,02,23,21.00
2009,07,29,02,24,21.00
2009,07,29,02,25,21.00
2009,07,29,02,26,21.00
2009,07,29,02,27,21.00
2009,07,29,02,28,21.00
2009,07,29,02,29,20.90
2009,07,29,02,30,20.90
2009,07,29,02,31,20.90
2009,07,29,02,32,20.90
2009,07,29,02,33,20.80
2009,07,29,02,34,20.80
2009,07,29,02,35,20.80
2009,07,29,02,36,20.80
2009,07,29,02,37,20.80
2009,07,29,02,38,20.70
2009,07,29,02,39,20.70
2009,07,29,02,40,20.70
2009,07,29,02,41,20.70
2009,07,29,02,42,20.70
2009,07,29,02,43,20.60
2009,07,29,02,44,20.60
2009,07,29,02,45,20.60
2009,07,29,02,46,20.60
2009,07,29,02,47,20.60
2009,07,29,02,48,20.60
2009,07,29,02,49,20.60
2009,07,29,02,50,20.60
2009,07,29,02,51,20.60
2009,07,29,02,52,20.60
2009,07,29,02,53,20.60
2009,07,29,02,54,20.60
2009,07,29,02,55,20.60
2009,07,29,02,56,20.60
2009,07,29,02,57,20.60
2009,07,29,02,58,20.60
2009,07,29,02,59,20.60
2009,07,29,03,00,20.60
2009,07,29,03,01,20.60
2009,07,29,03,02,20.60
2009,07,29,03,03,20.60
2009,07,29,03,04,20.60
2009,07,29,03,05,20.60
2009,07,29,03,06,20.60
2009,07,29,03,07,20.60
2009,07,29,03,08,20.60
2009,07,29,03,09,20.60
2009,07,29,03,10,20.60
2009,07,29,03,11,20.60
2009,07,29,03,12,20.60
2009,07,29,03,13,20.60
2009,07,29,03,14,20.60
2009,07,29,03,15,20.60
2009,07,29,03,16,20.70
2009,07,29,03,17,20.70
2009,07,29,03,18,20.70
2009,07,29,03,19,20.70
2009,07,29,03,20,20.70
2009,07,29,03,21,20.60
2009,07,29,03,22,20.60
2009,07,29,03,23,20.60
2009,07,29,03,24,20.60
2009,07,29,03,25,20.60
2009,07,29,03,26,20.50
2009,07,29,03,27,20.50
2009,07,29,03,28,20.50
2009,07,29,03,29,20.50
2009,07,29,03,30,20.50
2009,07,29,03,31,20.50
2009,07,29,03,32,20.50
2009,07,29,03,33,20.50
2009,07,29,03,34,20.50
2009,07,29,03,35,20.50
2009,07,29,03,36,20.50
2009,07,29,03,37,20.40
2009,07,29,03,38,20.40
2009,07,29,03,39,20.40
2009,07,29,03,40,20.50
2009,07,29,03,41,20.50
2009,07,29,03,42,20.50
2009,07,29,03,43,20.50
2009,07,29,03,44,20.50
2009,07,29,03,45,20.50
2009,07,29,03,46,20.50
2009,07,29,03,47,20.50
2009,07,29,03,48,20.50
2009,07,29,03,49,20.50
2009,07,29,03,50,20.50
2009,07,29,03,51,20.40
2009,07,29,03,52,20.40
2009,07,29,03,53,20.40
2009,07,29,03,54,20.40
2009,07,29,03,55,20.40
2009,07,29,03,56,20.40
2009,07,29,03,57,20.30
2009,07,29,03,58,20.30
2009,07,29,03,59,20.30
2009,07,29,04,00,20.30
2009,07,29,04,01,20.30
2009,07,29,04,02,20.30
2009,07,29,04,03,20.30
2009,07,29,04,04,20.30
2009,07,29,04,05,20.30
2009,07,29,04,06,20.30
2009,07,29,04,07,20.30
2009,07,29,04,08,20.30
2009,07,29,04,09,20.30
2009,07,29,04,10,20.30
2009,07,29,04,11,20.30
2009,07,29,04,12,20.30
2009,07,29,04,13,20.30
2009,07,29,04,14,20.30
2009,07,29,04,15,20.30
2009,07,29,04,16,20.30
2009,07,29,04,17,20.40
2009,07,29,04,18,20.40
2009,07,29,04,19,20.40
2009,07,29,04,20,20.40
2009,07,29,04,21,20.40
2009,07,29,04,22,20.40
2009,07,29,04,23,20.40
2009,07,29,04,24,20.40
2009,07,29,04,25,20.30
2009,07,29,04,26,20.30
2009,07,29,04,27,20.30
2009,07,29,04,28,20.30
2009,07,29,04,29,20.30
2009,07,29,04,30,20.30
2009,07,29,04,31,20.30
2009,07,29,04,32,20.30
2009,07,29,04,33,20.20
2009,07,29,04,34,20.20
2009,07,29,04,35,20.20
2009,07,29,04,36,20.20
2009,07,29,04,37,20.20
2009,07,29,04,38,20.20
2009,07,29,04,39,20.20
2009,07,29,04,40,20.20
2009,07,29,04,41,20.20
2009,07,29,04,42,20.20
2009,07,29,04,43,20.20
2009,07,29,04,44,20.20
2009,07,29,04,45,20.10
2009,07,29,04,46,20.10
2009,07,29,04,47,20.10
2009,07,29,04,48,20.10
2009,07,29,04,49,20.10
2009,07,29,04,50,20.10
2009,07,29,04,51,20.10
2009,07,29,04,52,20.10
2009,07,29,04,53,20.10
2009,07,29,04,54,20.10
2009,07,29,04,55,20.00
2009,07,29,04,56,19.90
2009,07,29,04,57,19.90
2009,07,29,04,58,19.90
2009,07,29,04,59,19.90
2009,07,29,05,00,19.90
2009,07,29,05,01,19.90
2009,07,29,05,02,19.90
2009,07,29,05,03,19.80
2009,07,29,05,04,19.80
2009,07,29,05,05,19.80
2009,07,29,05,06,19.80
2009,07,29,05,07,19.80
2009,07,29,05,08,19.80
2009,07,29,05,09,19.80
2009,07,29,05,10,19.70
2009,07,29,05,11,19.70
2009,07,29,05,12,19.70
2009,07,29,05,13,19.70
2009,07,29,05,14,19.70
2009,07,29,05,15,19.70
2009,07,29,05,16,19.60
2009,07,29,05,17,19.60
2009,07,29,05,18,19.60
2009,07,29,05,19,19.60
2009,07,29,05,20,19.60
2009,07,29,05,21,19.50
2009,07,29,05,22,19.50
2009,07,29,05,23,19.50
2009,07,29,05,24,19.50
2009,07,29,05,25,19.40
2009,07,29,05,26,19.40
2009,07,29,05,27,19.40
2009,07,29,05,28,19.40
2009,07,29,05,29,19.30
2009,07,29,05,30,19.30
2009,07,29,05,31,19.30
2009,07,29,05,32,19.30
2009,07,29,05,33,19.30
2009,07,29,05,34,19.20
2009,07,29,05,35,19.20
2009,07,29,05,36,19.20
2009,07,29,05,37,19.20
2009,07,29,05,38,19.20
2009,07,29,05,39,19.20
2009,07,29,05,40,19.20
2009,07,29,05,41,19.20
2009,07,29,05,42,19.20
2009,07,29,05,43,19.20
2009,07,29,05,44,19.20
2009,07,29,05,45,19.20
2009,07,29,05,46,19.20
2009,07,29,05,47,19.20
2009,07,29,05,48,19.10
2009,07,29,05,49,19.10
2009,07,29,05,50,19.10
2009,07,29,05,51,19.10
2009,07,29,05,52,19.10
2009,07,29,05,53,19.10
2009,07,29,05,54,19.10
2009,07,29,05,55,19.10
2009,07,29,05,56,19.10
2009,07,29,05,57,19.10
2009,07,29,05,58,19.10
2009,07,29,05,59,19.10
2009,07,29,06,00,19.10
2009,07,29,06,01,19.10
2009,07,29,06,02,19.10
2009,07,29,06,03,19.10
2009,07,29,06,04,19.10
2009,07,29,06,05,19.10
2009,07,29,06,06,19.10
2009,07,29,06,07,19.10
2009,07,29,06,08,19.10
2009,07,29,06,09,19.10
2009,07,29,06,10,19.10
2009,07,29,06,11,19.10
2009,07,29,06,12,19.10
2009,07,29,06,13,19.10
2009,07,29,06,14,19.10
2009,07,29,06,15,19.10
2009,07,29,06,16,19.10
2009,07,29,06,17,19.10
2009,07,29,06,18,19.10
2009,07,29,06,19,19.10
2009,07,29,06,20,19.10
2009,07,29,06,21,19.10
2009,07,29,06,22,19.10
2009,07,29,06,23,19.10
2009,07,29,06,24,19.10
2009,07,29,06,25,19.10
2009,07,29,06,26,19.10
2009,07,29,06,27,19.20
2009,07,29,06,28,19.20
2009,07,29,06,29,19.20
2009,07,29,06,30,19.20
2009,07,29,06,31,19.20
2009,07,29,06,32,19.20
2009,07,29,06,33,19.10
2009,07,29,06,34,19.10
2009,07,29,06,35,19.10
2009,07,29,06,36,19.10
2009,07,29,06,37,19.10
2009,07,29,06,38,19.10
2009,07,29,06,39,19.10
2009,07,29,06,40,19.10
2009,07,29,06,41,19.10
2009,07,29,06,42,19.10
2009,07,29,06,43,19.10
2009,07,29,06,44,19.10
2009,07,29,06,45,19.10
2009,07,29,06,46,19.10
2009,07,29,06,47,19.10
2009,07,29,06,48,19.10
2009,07,29,06,49,19.10
2009,07,29,06,50,19.10
2009,07,29,06,51,19.10
2009,07,29,06,52,19.10
2009,07,29,06,53,19.10
2009,07,29,06,54,19.10
2009,07,29,06,55,19.10
2009,07,29,06,56,19.10
2009,07,29,06,57,19.10
2009,07,29,06,58,19.10
2009,07,29,06,59,19.20
2009,07,29,07,00,19.20
2009,07,29,07,01,19.20
2009,07,29,07,02,19.20
2009,07,29,07,03,19.20
2009,07,29,07,04,19.30
2009,07,29,07,05,19.30
2009,07,29,07,06,19.30
2009,07,29,07,07,19.40
2009,07,29,07,08,19.40
2009,07,29,07,09,19.40
2009,07,29,07,10,19.40
2009,07,29,07,11,19.50
2009,07,29,07,12,19.50
2009,07,29,07,13,19.50
2009,07,29,07,14,19.50
2009,07,29,07,15,19.60
2009,07,29,07,16,19.60
2009,07,29,07,17,19.60
2009,07,29,07,18,19.70
2009,07,29,07,19,19.70
2009,07,29,07,20,19.70
2009,07,29,07,21,19.80
2009,07,29,07,22,19.80
2009,07,29,07,23,19.80
2009,07,29,07,24,19.90
2009,07,29,07,25,19.90
2009,07,29,07,26,19.90
2009,07,29,07,27,19.90
2009,07,29,07,28,19.90
2009,07,29,07,29,19.90
2009,07,29,07,30,19.90
2009,07,29,07,31,20.00
2009,07,29,07,32,20.10
2009,07,29,07,33,20.10
2009,07,29,07,34,20.10
2009,07,29,07,35,20.20
2009,07,29,07,36,20.20
2009,07,29,07,37,20.20
2009,07,29,07,38,20.30
2009,07,29,07,39,20.40
2009,07,29,07,40,20.50
2009,07,29,07,41,20.50
2009,07,29,07,42,20.60
2009,07,29,07,43,20.70
2009,07,29,07,44,20.80
2009,07,29,07,45,20.80
2009,07,29,07,46,20.90
2009,07,29,07,47,20.90
2009,07,29,07,48,20.90
2009,07,29,07,49,21.00
2009,07,29,07,50,21.00
2009,07,29,07,51,21.10
2009,07,29,07,52,21.10
2009,07,29,07,53,21.20
2009,07,29,07,54,21.30
2009,07,29,07,55,21.30
2009,07,29,07,56,21.30
2009,07,29,07,57,21.40
2009,07,29,07,58,21.50
2009,07,29,07,59,21.60
2009,07,29,08,00,21.60
2009,07,29,08,01,21.60
2009,07,29,08,02,21.70
2009,07,29,08,03,21.80
2009,07,29,08,04,21.90
2009,07,29,08,05,22.00
2009,07,29,08,06,22.00
2009,07,29,08,07,22.10
2009,07,29,08,08,22.10
2009,07,29,08,09,22.20
2009,07,29,08,10,22.20
2009,07,29,08,11,22.30
2009,07,29,08,12,22.30
2009,07,29,08,13,22.30
2009,07,29,08,14,22.40
2009,07,29,08,15,22.40
2009,07,29,08,16,22.50
2009,07,29,08,17,22.50
2009,07,29,08,18,22.50
2009,07,29,08,19,22.60
2009,07,29,08,20,22.80
2009,07,29,08,21,22.90
2009,07,29,08,22,23.00
2009,07,29,08,23,23.20
2009,07,29,08,24,23.30
2009,07,29,08,25,23.40
2009,07,29,08,26,23.60
2009,07,29,08,27,23.70
2009,07,29,08,28,23.90
2009,07,29,08,29,24.10
2009,07,29,08,30,24.20
2009,07,29,08,31,24.40
2009,07,29,08,32,24.50
2009,07,29,08,33,24.60
2009,07,29,08,34,24.70
2009,07,29,08,35,24.80
2009,07,29,08,36,24.90
2009,07,29,08,37,25.00
2009,07,29,08,38,25.10
2009,07,29,08,39,25.20
2009,07,29,08,40,25.20
2009,07,29,08,41,25.30
2009,07,29,08,42,25.30
2009,07,29,08,43,25.40
2009,07,29,08,44,25.40
2009,07,29,08,45,25.50
2009,07,29,08,46,25.50
2009,07,29,08,47,25.60
2009,07,29,08,48,25.60
2009,07,29,08,49,25.60
2009,07,29,08,50,25.70
2009,07,29,08,51,25.80
2009,07,29,08,52,25.80
2009,07,29,08,53,25.90
2009,07,29,08,54,25.90
2009,07,29,08,55,26.00
2009,07,29,08,56,26.00
2009,07,29,08,57,26.10
2009,07,29,08,58,26.10
2009,07,29,08,59,26.10
2009,07,29,09,00,26.20
2009,07,29,09,01,26.20
2009,07,29,09,02,26.30
2009,07,29,09,03,26.30
2009,07,29,09,04,26.40
2009,07,29,09,05,26.40
2009,07,29,09,06,26.40
2009,07,29,09,07,26.50
2009,07,29,09,08,26.60
2009,07,29,09,09,26.60
2009,07,29,09,10,26.60
2009,07,29,09,11,26.60
2009,07,29,09,12,26.60
2009,07,29,09,13,26.60
2009,07,29,09,14,26.60
2009,07,29,09,15,26.70
2009,07,29,09,16,26.70
2009,07,29,09,17,26.80
2009,07,29,09,18,26.80
2009,07,29,09,19,26.90
2009,07,29,09,20,27.00
2009,07,29,09,21,27.10
2009,07,29,09,22,27.20
2009,07,29,09,23,27.30
2009,07,29,09,24,27.30
2009,07,29,09,25,27.40
2009,07,29,09,26,27.50
2009,07,29,09,27,27.60
2009,07,29,09,28,27.70
2009,07,29,09,29,27.80
2009,07,29,09,30,27.90
2009,07,29,09,31,27.90
2009,07,29,09,32,28.00
2009,07,29,09,33,28.00
2009,07,29,09,34,28.00
2009,07,29,09,35,28.00
2009,07,29,09,36,28.10
2009,07,29,09,37,28.10
2009,07,29,09,38,28.10
2009,07,29,09,39,28.20
2009,07,29,09,40,28.20
2009,07,29,09,41,28.20
2009,07,29,09,42,28.30
2009,07,29,09,43,28.40
2009,07,29,09,44,28.40
2009,07,29,09,45,28.40
2009,07,29,09,46,28.50
2009,07,29,09,47,28.60
2009,07,29,09,48,28.60
2009,07,29,09,49,28.60
2009,07,29,09,50,28.70
2009,07,29,09,51,28.70
2009,07,29,09,52,28.80
2009,07,29,09,53,28.80
2009,07,29,09,54,28.90
2009,07,29,09,55,28.90
2009,07,29,09,56,28.90
2009,07,29,09,57,28.90
2009,07,29,09,58,28.90
2009,07,29,09,59,28.90
2009,07,29,10,00,28.90
2009,07,29,10,01,28.90
2009,07,29,10,02,28.90
2009,07,29,10,03,28.90
2009,07,29,10,04,28.90
2009,07,29,10,05,28.90
2009,07,29,10,06,28.90
2009,07,29,10,07,28.90
2009,07,29,10,08,28.90
2009,07,29,10,09,28.90
2009,07,29,10,10,28.90
2009,07,29,10,11,28.90
2009,07,29,10,12,28.90
2009,07,29,10,13,28.90
2009,07,29,10,14,28.90
2009,07,29,10,15,28.90
2009,07,29,10,16,28.90
2009,07,29,10,17,28.90
2009,07,29,10,18,28.90
2009,07,29,10,19,28.90
2009,07,29,10,20,28.90
2009,07,29,10,21,28.90
2009,07,29,10,22,29.00
2009,07,29,10,23,29.10
2009,07,29,10,24,29.10
2009,07,29,10,25,29.10
2009,07,29,10,26,29.10
2009,07,29,10,27,29.20
2009,07,29,10,28,29.20
2009,07,29,10,29,29.20
2009,07,29,10,30,29.20
2009,07,29,10,31,29.20
2009,07,29,10,32,29.20
2009,07,29,10,33,29.20
2009,07,29,10,34,29.30
2009,07,29,10,35,29.30
2009,07,29,10,36,29.30
2009,07,29,10,37,29.30
2009,07,29,10,38,29.30
2009,07,29,10,39,29.40
2009,07,29,10,40,29.40
2009,07,29,10,41,29.40
2009,07,29,10,42,29.40
2009,07,29,10,43,29.40
2009,07,29,10,44,29.40
2009,07,29,10,45,29.30
2009,07,29,10,46,29.30
2009,07,29,10,47,29.30
2009,07,29,10,48,29.30
2009,07,29,10,49,29.20
2009,07,29,10,50,29.20
2009,07,29,10,51,29.20
2009,07,29,10,52,29.20
2009,07,29,10,53,29.20
2009,07,29,10,54,29.20
2009,07,29,10,55,29.30
2009,07,29,10,56,29.30
2009,07,29,10,57,29.30
2009,07,29,10,58,29.30
2009,07,29,10,59,29.30
2009,07,29,11,00,29.30
2009,07,29,11,01,29.30
2009,07,29,11,02,29.30
2009,07,29,11,03,29.30
2009,07,29,11,04,29.40
2009,07,29,11,05,29.40
2009,07,29,11,06,29.40
2009,07,29,11,07,29.40
2009,07,29,11,08,29.40
2009,07,29,11,09,29.50
2009,07,29,11,10,29.50
2009,07,29,11,11,29.50
2009,07,29,11,12,29.60
2009,07,29,11,13,29.60
2009,07,29,11,14,29.70
2009,07,29,11,15,29.70
2009,07,29,11,16,29.80
2009,07,29,11,17,29.80
2009,07,29,11,18,29.80
2009,07,29,11,19,29.90
2009,07,29,11,20,29.90
2009,07,29,11,21,30.00
2009,07,29,11,22,30.10
2009,07,29,11,23,30.10
2009,07,29,11,24,30.10
2009,07,29,11,25,30.20
2009,07,29,11,26,30.20
2009,07,29,11,27,30.20
2009,07,29,11,28,30.30
2009,07,29,11,29,30.30
2009,07,29,11,30,30.30
2009,07,29,11,31,30.30
2009,07,29,11,32,30.30
2009,07,29,11,33,30.40
2009,07,29,11,34,30.40
2009,07,29,11,35,30.40
2009,07,29,11,36,30.40
2009,07,29,11,37,30.40
2009,07,29,11,38,30.60
2009,07,29,11,39,30.60
2009,07,29,11,40,30.60
2009,07,29,11,41,30.60
2009,07,29,11,42,30.60
2009,07,29,11,43,30.70
2009,07,29,11,44,30.70
2009,07,29,11,45,30.70
2009,07,29,11,46,30.70
2009,07,29,11,47,30.70
2009,07,29,11,48,30.80
2009,07,29,11,49,30.80
2009,07,29,11,50,30.80
2009,07,29,11,51,30.80
2009,07,29,11,52,30.80
2009,07,29,11,53,30.80
2009,07,29,11,54,30.80
2009,07,29,11,55,30.90
2009,07,29,11,56,30.90
2009,07,29,11,57,30.90
2009,07,29,11,58,31.00
2009,07,29,11,59,31.00
2009,07,29,12,00,31.00
2009,07,29,12,01,31.10
2009,07,29,12,02,31.10
2009,07,29,12,03,31.10
2009,07,29,12,04,31.10
2009,07,29,12,05,31.10
2009,07,29,12,06,31.20
2009,07,29,12,07,31.20
2009,07,29,12,08,31.20
2009,07,29,12,09,31.20
2009,07,29,12,10,31.20
2009,07,29,12,11,31.20
2009,07,29,12,12,31.20
2009,07,29,12,13,31.20
2009,07,29,12,14,31.30
2009,07,29,12,15,31.30
2009,07,29,12,16,31.30
2009,07,29,12,17,31.30
2009,07,29,12,18,31.30
2009,07,29,12,19,31.40
2009,07,29,12,20,31.40
2009,07,29,12,21,31.40
2009,07,29,12,22,31.40
2009,07,29,12,23,31.40
2009,07,29,12,24,31.40
2009,07,29,12,25,31.40
2009,07,29,12,26,31.40
2009,07,29,12,27,31.40
2009,07,29,12,28,31.40
2009,07,29,12,29,31.50
2009,07,29,12,30,31.60
2009,07,29,12,31,31.60
2009,07,29,12,32,31.60
2009,07,29,12,33,31.60
2009,07,29,12,34,31.70
2009,07,29,12,35,31.70
2009,07,29,12,36,31.70
2009,07,29,12,37,31.80
2009,07,29,12,38,31.80
2009,07,29,12,39,31.80
2009,07,29,12,40,31.80
2009,07,29,12,41,31.80
2009,07,29,12,42,31.90
2009,07,29,12,43,31.90
2009,07,29,12,44,31.90
2009,07,29,12,45,31.90
2009,07,29,12,46,32.00
2009,07,29,12,47,32.10
2009,07,29,12,48,32.10
2009,07,29,12,49,32.10
2009,07,29,12,50,32.10
2009,07,29,12,51,32.20
2009,07,29,12,52,32.20
2009,07,29,12,53,32.20
2009,07,29,12,54,32.20
2009,07,29,12,55,32.20
2009,07,29,12,56,32.20
2009,07,29,12,57,32.30
2009,07,29,12,58,32.30
2009,07,29,12,59,32.30
2009,07,29,13,00,32.30
2009,07,29,13,01,32.40
2009,07,29,13,02,32.40
2009,07,29,13,03,32.40
2009,07,29,13,04,32.50
2009,07,29,13,05,32.50
2009,07,29,13,06,32.50
2009,07,29,13,07,32.50
2009,07,29,13,08,32.50
2009,07,29,13,09,32.60
2009,07,29,13,10,32.60
2009,07,29,13,11,32.80
2009,07,29,13,12,32.90
2009,07,29,13,13,33.00
2009,07,29,13,14,33.00
2009,07,29,13,15,33.10
2009,07,29,13,16,33.10
2009,07,29,13,17,33.10
2009,07,29,13,18,33.20
2009,07,29,13,19,33.20
2009,07,29,13,20,33.40
2009,07,29,13,21,33.50
2009,07,29,13,22,33.60
2009,07,29,13,23,33.70
2009,07,29,13,24,33.80
2009,07,29,13,25,34.00
2009,07,29,13,26,34.10
2009,07,29,13,27,34.20
2009,07,29,13,28,34.20
2009,07,29,13,29,34.30
2009,07,29,13,30,34.30
2009,07,29,13,31,34.30
2009,07,29,13,32,34.30
2009,07,29,13,33,34.30
2009,07,29,13,34,34.40
2009,07,29,13,35,34.40
2009,07,29,13,36,34.60
2009,07,29,13,37,34.60
2009,07,29,13,38,34.60
2009,07,29,13,39,34.70
2009,07,29,13,40,34.70
2009,07,29,13,41,34.70
2009,07,29,13,42,34.70
2009,07,29,13,43,34.70
2009,07,29,13,44,34.70
2009,07,29,13,45,34.70
2009,07,29,13,46,34.70
2009,07,29,13,47,34.80
2009,07,29,13,48,34.80
2009,07,29,13,49,34.80
2009,07,29,13,50,34.80
2009,07,29,13,51,34.80
2009,07,29,13,52,34.80
2009,07,29,13,53,34.80
2009,07,29,13,54,34.80
2009,07,29,13,55,34.80
2009,07,29,13,56,34.80
2009,07,29,13,57,34.80
2009,07,29,13,58,34.80
2009,07,29,13,59,34.80
2009,07,29,14,00,34.70
2009,07,29,14,01,34.70
2009,07,29,14,02,34.80
2009,07,29,14,03,34.80
2009,07,29,14,04,34.80
2009,07,29,14,05,34.80
2009,07,29,14,06,34.80
2009,07,29,14,07,34.80
2009,07,29,14,08,34.80
2009,07,29,14,09,34.90
2009,07,29,14,10,35.00
2009,07,29,14,11,35.10
2009,07,29,14,12,35.10
2009,07,29,14,13,34.90
2009,07,29,14,14,34.90
2009,07,29,14,15,34.90
2009,07,29,14,16,34.90
2009,07,29,14,17,34.80
2009,07,29,14,18,34.90
2009,07,29,14,19,34.90
2009,07,29,14,20,34.90
2009,07,29,14,21,35.10
2009,07,29,14,22,35.20
2009,07,29,14,23,35.30
2009,07,29,14,24,35.50
2009,07,29,14,25,35.50
2009,07,29,14,26,35.60
2009,07,29,14,27,35.60
2009,07,29,14,28,35.70
2009,07,29,14,29,35.60
2009,07,29,14,30,35.60
2009,07,29,14,31,35.60
2009,07,29,14,32,35.60
2009,07,29,14,33,35.60
2009,07,29,14,34,35.60
2009,07,29,14,35,35.50
2009,07,29,14,36,35.50
2009,07,29,14,37,35.50
2009,07,29,14,38,35.60
2009,07,29,14,39,35.60
2009,07,29,14,40,35.60
2009,07,29,14,41,35.60
2009,07,29,14,42,35.60
2009,07,29,14,43,35.50
2009,07,29,14,44,35.50
2009,07,29,14,45,35.40
2009,07,29,14,46,35.20
2009,07,29,14,47,35.20
2009,07,29,14,48,35.20
2009,07,29,14,49,35.30
2009,07,29,14,50,35.30
2009,07,29,14,51,35.40
2009,07,29,14,52,35.50
2009,07,29,14,53,35.60
2009,07,29,14,54,35.60
2009,07,29,14,55,35.70
2009,07,29,14,56,35.70
2009,07,29,14,57,35.80
2009,07,29,14,58,35.90
2009,07,29,14,59,36.00
2009,07,29,15,00,36.00
2009,07,29,15,01,36.00
2009,07,29,15,02,36.00
2009,07,29,15,03,36.10
2009,07,29,15,04,36.00
2009,07,29,15,05,36.10
2009,07,29,15,06,36.20
2009,07,29,15,07,36.20
2009,07,29,15,08,36.30
2009,07,29,15,09,36.30
2009,07,29,15,10,36.40
2009,07,29,15,11,36.40
2009,07,29,15,12,36.60
2009,07,29,15,13,36.60
2009,07,29,15,14,36.60
2009,07,29,15,15,36.70
2009,07,29,15,16,36.60
2009,07,29,15,17,36.60
2009,07,29,15,18,36.60
2009,07,29,15,19,36.60
2009,07,29,15,20,36.70
2009,07,29,15,21,36.70
2009,07,29,15,22,36.60
2009,07,29,15,23,36.60
2009,07,29,15,24,36.60
2009,07,29,15,25,36.60
2009,07,29,15,26,36.60
2009,07,29,15,27,36.60
2009,07,29,15,28,36.60
2009,07,29,15,29,36.60
2009,07,29,15,30,36.60
2009,07,29,15,31,36.60
2009,07,29,15,32,36.60
2009,07,29,15,33,36.60
2009,07,29,15,34,36.60
2009,07,29,15,35,36.50
2009,07,29,15,36,36.40
2009,07,29,15,37,36.40
2009,07,29,15,38,36.40
2009,07,29,15,39,36.40
2009,07,29,15,40,36.40
2009,07,29,15,41,36.40
2009,07,29,15,42,36.30
2009,07,29,15,43,36.40
2009,07,29,15,44,36.40
2009,07,29,15,45,36.40
2009,07,29,15,46,36.60
2009,07,29,15,47,36.60
2009,07,29,15,48,36.70
2009,07,29,15,49,36.80
2009,07,29,15,50,36.80
2009,07,29,15,51,36.80
2009,07,29,15,52,36.80
2009,07,29,15,53,36.80
2009,07,29,15,54,36.90
2009,07,29,15,55,36.90
2009,07,29,15,56,36.90
2009,07,29,15,57,36.90
2009,07,29,15,58,36.80
2009,07,29,15,59,36.70
2009,07,29,16,00,36.60
2009,07,29,16,01,36.60
2009,07,29,16,02,36.60
2009,07,29,16,03,36.40
2009,07,29,16,04,36.40
2009,07,29,16,05,36.40
2009,07,29,16,06,36.40
2009,07,29,16,07,36.30
2009,07,29,16,08,36.30
2009,07,29,16,09,36.30
2009,07,29,16,10,36.20
2009,07,29,16,11,36.10
2009,07,29,16,12,35.90
2009,07,29,16,13,35.70
2009,07,29,16,14,35.70
2009,07,29,16,15,35.60
2009,07,29,16,16,35.50
2009,07,29,16,17,35.50
2009,07,29,16,18,35.40
2009,07,29,16,19,35.30
2009,07,29,16,20,35.20
2009,07,29,16,21,35.20
2009,07,29,16,22,35.20
2009,07,29,16,23,35.10
2009,07,29,16,24,35.10
2009,07,29,16,25,35.20
2009,07,29,16,26,35.20
2009,07,29,16,27,35.20
2009,07,29,16,28,35.20
2009,07,29,16,29,35.20
2009,07,29,16,30,35.20
2009,07,29,16,31,35.20
2009,07,29,16,32,35.30
2009,07,29,16,33,35.30
2009,07,29,16,34,35.30
2009,07,29,16,35,35.30
2009,07,29,16,36,35.30
2009,07,29,16,37,35.30
2009,07,29,16,38,35.30
2009,07,29,16,39,35.30
2009,07,29,16,40,35.30
2009,07,29,16,41,35.30
2009,07,29,16,42,35.30
2009,07,29,16,43,35.30
2009,07,29,16,44,35.30
2009,07,29,16,45,35.30
2009,07,29,16,46,35.30
2009,07,29,16,47,35.30
2009,07,29,16,48,35.30
2009,07,29,16,49,35.40
2009,07,29,16,50,35.50
2009,07,29,16,51,35.50
2009,07,29,16,52,35.50
2009,07,29,16,53,35.50
2009,07,29,16,54,35.50
2009,07,29,16,55,35.50
2009,07,29,16,56,35.50
2009,07,29,16,57,35.50
2009,07,29,16,58,35.50
2009,07,29,16,59,35.50
2009,07,29,17,00,35.50
2009,07,29,17,01,35.50
2009,07,29,17,02,35.40
2009,07,29,17,03,35.30
2009,07,29,17,04,35.30
2009,07,29,17,05,35.30
2009,07,29,17,06,35.30
2009,07,29,17,07,35.30
2009,07,29,17,08,35.30
2009,07,29,17,09,35.20
2009,07,29,17,10,35.20
2009,07,29,17,11,35.20
2009,07,29,17,12,35.20
2009,07,29,17,13,35.20
2009,07,29,17,14,35.20
2009,07,29,17,15,35.20
2009,07,29,17,16,35.20
2009,07,29,17,17,35.10
2009,07,29,17,18,35.10
2009,07,29,17,19,35.10